Volver al catálogo

DIRECTV 10

ActivoComunicacionesGEO
NORAD 31862·PAYLOAD·🇺🇸 United States

Lanzado Jul 7, 2007 desde Baikonur Cosmodrome

Loading…

TLE

ActualizadoSource: Space-Track

Época: Sep 14, 2026, 12:44 UTC

1 31862U 07032A   26257.53119539 -.00000200  00000-0  00000-0 0  9993
2 31862   0.6352  87.1359 0003735 331.8906 263.9326  0.98339729 46448

Sigue DIRECTV 10 en tiempo real con AllMySat

Download on the App Store